GFSFLT2_prec_radar_216.txt.gz
Reflectivity
-7 -19 -18 -20 -19 -1 3 -8 -20 -20 -20 -20 -20 -20 -20 -20 -20 -20 -20 -20 -20 -20 -20 -20 -20 -20 -20 -20 -20 -20 -20 -20
-3 2 -20 -20 5 -18 -16 -20 -20 -20 -20 -20 -20 -20 -20 -20 -20 -20 -20 -20 -20 -20 -20 -20 -20 -20 -20 -20 -20 -20 -20 -20
5 2 6 -17 -20 -9 -14 -20 -20 -20 -20 -20 -20 -20 -20 -20 -20 -20 -20 -20 -20 -20 -20 -20 -20 -20 -20 -20 -20 -20 -20 -20
-6 4 11 -1 1 -9 -20 -20 -20 -20 -20 0 -20 -20 -20 -20 -20 -20 -20 -20 -20 -20 -20 -20 -20 -20 -20 -20 -20 -20 -20 -20
-5 -4 8 10 4 4 -14 -20 -20 -20 3 -4 -20 -20 -20 -20 -20 -20 -20 -20 -18 -20 -20 -20 -20 -20 -20 -20 -20 -20 -20 -20
-20 -14 7 10 10 -3 9 0 8 2 10 1 -19 -20 -20 -20 -20 -20 -20 -20 -20 -20 -20 -20 -20 -20 -20 -20 -20 -20 -20 -20
-20 -20 -2 11 9 10 3 -4 4 4 5 0 -1 -20 -20 -20 -20 -20 -0 -20 -20 -20 -20 -20 -20 -20 -20 -20 -20 -20 -20 -20
-20 -20 -10 1 -16 4 13 -1 2 -20 -20 -20 1 -20 -19 -20 -20 -20 -0 -20 -20 -20 -20 -20 -20 -20 -20 -20 -20 -20 -20 -20
-20 -20 -20 -18 8 9 15 11 8 -12 -20 -14 5 -14 -5 -20 -20 -18 21 -20 -20 -20 -20 -20 -20 -20 -20 -20 -20 -20 -20 -20
-20 -20 -20 -20 -20 -5 -2 14 11 -1 -20 -1 4 2 2 -20 -20 -14 -6 -20 -20 -20 -20 -20 -20 -20 -20 -20 -20 -20 -20 -20
-20 -20 -20 -20 -19 -16 -1 4 13 -5 -20 -20 -20 -20 -6 -20 -20 -20 13 -1 -20 -20 -20 -20 -20 -20 -20 -20 -20 -20 -20 -20
-20 -20 -20 -20 -19 2 8 11 9 3 -14 -20 -20 -20 -20 -20 -20 -20 5 -20 -20 -20 -20 -20 -20 -20 -20 -20 -20 -20 -20 -20
-20 -20 -20 -20 4 4 3 -20 -4 -13 -20 -20 -20 -20 -20 -20 -20 -20 -20 -20 -20 -20 -20 -20 -20 -20 -20 -20 -20 -20 -20 -20
-20 -20 -20 -13 4 1 6 1 -0 -20 -20 -20 -20 -20 -20 -20 -20 -20 -20 -20 -20 -20 -20 -20 -20 -20 -20 -20 -20 -20 -20 -20
-20 -20 -20 -13 2 5 8 7 -2 5 -7 -16 -10 -20 -20 -20 -20 -20 -20 -10 -20 -20 -20 -20 -20 -20 -20 -20 -10 -20 -20 -20
-20 -20 -20 -20 8 7 4 -20 -3 -2 -9 -12 -15 -20 -20 -20 -20 -20 -20 -14 -20 -20 -20 -20 -20 -20 -20 -20 -20 -20 -20 -20
-20 -20 -20 -20 9 -14 17 7 4 -20 -20 -17 -16 -19 -20 -20 -20 -20 -20 18 -12 -20 -20 -20 -20 -20 -20 -20 -20 -20 -20 -20
-20 -20 -20 -20 9 11 11 12 -16 -6 -14 -14 12 2 -17 -2 4 -10 -11 -1 -16 -17 -20 -20 -20 -20 -20 -20 -20 -20 -20 -20
-20 -20 -20 -20 1 15 13 0 10 9 8 -18 -13 15 -1 6 7 -9 -0 -20 -20 -20 -20 -20 -20 -13 -20 -20 -20 -20 -20 -20
-20 -20 -20 -20 -20 -17 10 10 12 11 14 -1 -12 -14 -19 -7 -6 3 16 16 -5 -10 -13 -10 -20 -20 -20 -20 -20 -20 -20 -10

GFSFLT2_prec_radar_219.txt.gz
Reflectivity
-20 0 -2 6 -11 -4 11 1 -20 -20 -20 -20 -20 -20 -20 -20 -20 -20 -20 -20 -20 -20 -20 -20 -20 -20 -20 -20 -20 -20 -20 -20
-20 -20 -11 3 -3 9 9 7 2 7 -20 -20 -20 -20 -20 -20 -20 -20 -20 -20 -20 -20 -20 -20 -20 -20 -20 -20 -20 -20 -20 -20
6 -20 -20 -9 10 -5 8 11 11 -5 -20 -20 -20 -20 -20 -20 -20 -20 -20 -20 -20 -20 -20 -20 -20 -20 -20 -20 -20 -20 -20 -20
2 3 -20 -20 -18 6 7 -8 -1 -7 -20 -2 -20 -20 -20 -20 -20 -20 -20 -20 -11 -20 -20 -20 -20 -20 -20 -20 -20 -20 -20 -20
-20 8 6 -20 -20 8 10 10 8 2 -2 -19 -20 -20 -20 -20 -20 -20 -20 -20 -18 -20 -20 -20 -20 -20 -20 -20 -20 -20 -20 -20
-17 1 9 8 -1 5 -20 -4 -20 8 8 -19 -20 -20 -20 -20 -20 -20 -20 -20 -20 -20 -20 -20 -20 -20 -20 -20 -20 -20 -20 -20
-20 -15 -5 -9 8 8 -3 -4 -9 -20 -2 -12 -20 -20 -20 -20 -20 -20 -20 -20 -20 -20 -20 -20 -20 -20 -20 -20 -20 -20 -20 -20
-20 -20 -15 10 10 -8 8 -17 -20 1 8 -20 -17 -20 -18 -20 -20 -20 -20 -20 -20 -20 -20 -20 -20 -20 -20 -20 -20 -20 -20 -20
-20 -20 -10 3 10 2 -19 7 5 6 5 -20 -20 4 -16 -20 -20 -20 -20 -20 23 -20 -20 -20 -20 -20 -20 -20 -20 -20 -20 -20
-20 -20 -20 -17 11 8 14 -18 9 11 10 12 -2 -20 -16 -20 -20 -20 -20 -20 11 -20 -20 -20 -20 -20 -20 -20 -20 -20 -20 -20
-20 -20 -20 -4 9 7 11 7 21 -3 -18 -2 8 -12 -11 -20 -20 -20 11 -0 20 -19 -20 -20 -20 -20 -20 -20 -20 -20 -20 -20
-20 -20 -20 -20 2 10 15 17 22 16 -14 -20 -10 -4 -2 3 -18 -20 -14 -20 -11 -20 -20 -20 -20 -20 -20 -20 -20 -20 -20 -20
-20 -20 -20 -20 3 10 12 5 14 -14 -20 -20 -20 -20 8 5 3 -20 -20 -20 -20 8 -20 -20 -20 -20 -20 -20 -20 -20 -20 -20
-20 -20 -20 -20 -20 -16 9 7 4 6 -13 -11 6 10 11 20 7 -20 -20 -20 -20 -20 -20 -20 -20 -20 -20 -20 -20 -20 -20 -20
-20 -20 -20 -20 -20 -20 12 14 13 8 13 14 17 -8 -17 -18 21 -6 -20 -20 -20 -20 -20 -20 -20 -20 -20 -20 -20 -20 -20 -20
-11 -19 -20 -20 -20 -9 -8 -20 -5 -15 -6 -6 -11 -16 -18 -19 6 19 -17 -19 -20 -20 -20 -20 -20 -20 -20 -20 -20 -20 -20 -20
-20 -20 -20 -20 -20 -19 -20 -20 1 -20 2 19 26 -17 -19 -4 13 17 2 20 -20 -18 -20 11 -20 -20 -20 -20 -20 -20 -20 -20
-20 -20 -20 -20 -20 15 -19 -20 -18 12 8 16 21 17 12 -8 1 -4 -1 13 5 -20 -20 -19 10 -16 -20 -20 -20 -20 -20 -20
-20 -20 -20 -20 -20 27 -3 -20 -20 5 7 -17 10 20 18 25 3 9 0 -20 16 9 -20 -20 -2 1 -17 -20 -20 -20 -20 -20
-20 -20 -20 -20 -20 -14 29 13 11 -14 -20 3 -12 7 7 13 11 15 -4 15 -20 19 -15 -16 -3 14 7 -18 -20 -20 -20 -20

GFSFLT2_prec_radar_222.txt.gz
Reflectivity
-4 -20 -20 -20 -16 -20 -20 -20 -20 -20 -20 -20 -20 -20 -20 -20 -20 -20 -20 -20 -20 -20 -20 -20 -20 -20 -20 -20 -20 -20 -20 -20
4 -15 -15 -20 -20 -16 -20 -20 -20 -20 -20 -20 -20 -20 -20 -20 -20 -20 -20 -20 -20 -20 -20 -20 -20 -20 -20 -20 -20 -20 -20 -20
9 7 -10 -20 -1 -12 5 -14 -11 -8 -15 -20 -20 -20 -20 -20 -20 -20 -20 -20 -20 -20 -20 -20 -20 -20 -20 -20 -20 -20 -20 -20
-20 11 -20 -3 -13 -20 -5 -20 -20 -7 -9 -11 -20 -20 -20 -20 -20 -20 -20 -20 -20 -20 -20 -20 -20 -20 -20 -20 -20 -20 -20 -20
-20 -15 1 -20 -19 -20 -7 -17 -2 13 6 -2 -20 -20 -20 -20 -20 -20 -20 -20 -20 -20 -20 -20 -20 -20 -20 -20 -20 -20 -20 -20
-20 -20 1 -4 3 -20 -20 -1 7 1 3 -20 -20 -20 -20 -20 -20 -20 -20 -20 -20 -20 -20 -20 -20 -20 -20 -20 -20 -20 -20 -20
-20 -20 -14 -1 4 -18 -20 -6 4 6 -8 -19 -20 -20 -20 -20 -20 -20 -20 -20 -20 -20 -20 -20 -20 -20 -20 -20 -20 -20 -20 -20
-20 -20 -20 3 -19 -16 -20 -20 -20 -5 -16 -18 -11 -20 -20 -20 -20 -20 -20 -20 -20 -20 -20 -20 -20 -20 -20 -20 -20 -20 -20 -20
-20 -20 -20 -20 4 3 -3 -20 -20 -20 -20 -20 -20 -20 -20 -20 -20 -20 -20 -20 -20 -20 -20 -20 -20 -20 -20 -20 -20 -20 -20 -20
-20 -20 -20 -20 -11 -5 7 -9 6 5 -15 -20 -20 -20 -20 -20 -20 -20 -20 -20 -20 -20 -20 -20 -20 -20 -20 -20 -20 -20 -20 -20
-20 -20 -20 -20 -8 9 4 3 3 -1 17 12 -20 -20 -20 -20 -20 -20 -20 -20 -20 -20 -20 6 -20 -20 -20 -20 -20 -20 -20 -20
-20 -20 -20 -20 -20 9 9 9 14 11 -17 -15 -20 -20 -3 -20 -20 -20 21 -20 -20 -20 -20 13 -20 -20 -20 -20 -20 -20 -20 -20
-20 -20 -20 -20 -20 -13 12 4 -20 -20 -12 -20 1 -20 -3 -2 -20 -20 21 -20 21 25 -20 -14 -20 -20 -20 -20 -20 -20 -20 -20
-20 -20 -20 -20 -20 -20 -20 -13 -18 -20 -19 -6 -5 13 10 -20 -20 -20 25 -17 -20 -20 -20 -14 -20 -20 -20 -20 -20 -20 -20 -20
-20 -20 -20 -20 -20 -20 -20 -17 25 11 8 -12 -10 2 1 5 -12 -20 -3 4 -6 23 -20 -20 -6 -20 -20 -20 -20 -20 -20 -20
-20 -14 8 -18 -20 -20 -20 -20 -20 -13 -18 -20 -20 -18 5 8 3 5 -20 -20 -20 -20 -8 15 -15 -20 -20 -20 -20 -20 -20 -20
-20 -20 -20 5 35 5 -20 -18 -20 -20 -13 -20 -19 16 22 -1 22 12 5 -20 -20 -18 -20 -20 6 -12 -20 -20 -20 -20 -20 -20
-20 -20 -20 -20 -20 -7 -20 12 -4 -9 8 13 9 19 19 15 7 11 12 -6 -20 -12 -4 -20 -16 14 10 7 -20 -20 -20 -20
-20 -20 -20 -20 -20 -20 -18 -20 11 10 5 -20 -4 5 15 4 9 11 -9 22 -18 -20 2 -20 3 5 7 1 -20 -19 -20 -20
-20 -20 -20 -20 -20 -20 22 -5 29 16 -2 -20 5 -3 -10 14 17 16 8 7 2 -20 -19 -19 -15 8 -1 -6 -14 -20 -1 4

GFSFLT2_prec_radar_225.txt.gz
Reflectivity
-20 -20 -20 -20 -20 -20 -20 -20 -20 -20 -20 -20 -20 -20 -20 -20 -20 2 13 -15 -20 -20 -20 -20 -20 -20 -20 -20 -20 -20 -20 -20
-20 -20 -20 -20 -20 -20 -20 -20 -20 -20 -20 -20 -20 -20 -20 -20 -20 -13 -2 -20 -20 -20 -20 -20 -20 -20 -20 -20 -20 -20 -20 -20
-20 -20 -20 -20 -20 -10 -8 -20 -20 -20 -20 -20 -20 -20 -20 -20 -20 -20 -20 -20 -20 -20 -20 -20 -20 -20 -20 -20 -20 -20 -20 -20
-20 -20 -20 -20 -13 -20 -2 -11 -5 1 2 -6 -20 -20 -20 -20 -20 -20 -20 -20 -20 -20 -20 -20 -20 -20 -20 -20 -20 -20 -20 -20
-20 -20 -20 -20 2 -20 -20 -20 -1 9 4 -1 -20 -20 -20 -20 -20 -20 -20 -20 -20 -20 -20 -20 -20 -20 -20 -20 -20 -20 -20 -20
-20 -20 -20 -20 -3 -20 -8 -20 -20 9 -12 -2 -20 -20 -20 -11 -20 -20 -20 -20 -20 -20 -20 -20 -20 -20 -20 -20 -20 -20 -20 -20
-20 -20 -20 -20 -20 -14 0 3 3 -20 -15 -12 -13 -20 -20 4 -20 -20 -20 -20 -20 -20 -20 -20 -20 -20 -20 -20 -20 -20 -20 -20
-20 -20 -20 -20 -20 -20 -14 -1 -20 -20 -12 -17 6 -20 -20 -15 -20 -20 -20 -20 -20 -20 -20 -20 -20 -20 -20 -20 -20 -20 -20 -20
-20 -20 -20 -20 -20 -20 -20 -20 -20 -4 -15 -20 6 -20 -20 -12 -20 -20 -20 -20 -20 -20 -20 -20 -20 -20 -20 -20 -20 -20 -20 -20
-20 -20 -20 -20 -20 -20 -20 -20 -20 6 -6 -20 -20 -19 -12 -20 -20 -20 -20 -20 -20 -20 -20 -20 -20 -20 -20 -20 -20 -20 -20 -20
-20 -20 -20 -20 -20 -20 -20 -20 -20 -20 -20 -20 -20 -20 -20 -18 -19 -20 -20 -20 -20 -20 -20 -20 -20 -20 -20 -20 -20 -20 -20 -20
-20 -20 -20 -20 -20 -20 -20 -11 7 -20 -20 -20 -20 -20 -20 -20 -20 -20 -20 -20 -20 -20 -20 -20 -20 -20 -16 -20 -20 -20 -20 -20
-20 -20 -15 -8 -2 -20 -20 -11 7 -20 -20 -20 -20 -20 -20 -20 -20 -20 -20 -20 -5 -20 -20 -20 -20 -20 -20 -20 -20 -20 -20 -20
-20 -20 -20 -20 -20 -2 -20 -20 -20 -20 -20 -5 -18 -20 -19 6 -20 -20 -20 -20 -20 -20 -20 -16 -3 -20 -20 -20 -20 -20 -20 -20
-20 -20 -20 -20 -20 -16 -14 -9 34 -7 6 10 7 -8 -17 2 -20 -20 -20 -20 -20 20 2 -20 -6 -12 -20 -20 -20 -20 -20 -20
-20 -20 -20 -20 -13 -19 2 -20 -18 -12 -20 -20 -20 -18 3 7 2 -20 -20 -20 -20 -20 -20 -20 -20 -20 -20 -20 -20 -20 -20 -20
-20 -20 -20 -7 -17 -19 -5 -0 -15 -19 -19 -20 -20 -11 8 8 11 -19 -20 -20 -19 -3 -20 -12 -20 -20 -20 -20 -20 -20 -20 -20
-20 -20 -20 19 -4 12 11 36 37 34 3 -6 -2 -9 -6 12 13 11 -20 -20 -20 16 -11 16 -20 -20 -20 -20 -20 -20 -20 -20
-20 -20 -20 -20 -20 -20 -18 33 29 34 26 12 9 2 -3 7 20 19 -0 -2 -20 -20 4 15 -6 16 -0 -20 -20 -20 -20 -20
-20 -20 -20 -20 -20 -20 -20 -20 -20 4 21 32 27 13 23 26 -2 18 13 20 5 -14 -20 20 21 -13 2 5 -20 -20 -20 -20

GFSFLT2_prec_radar_228.txt.gz
Reflectivity
-20 -20 -5 -20 17 15 -20 -20 -20 -20 -20 -20 -20 -20 -20 -20 -20 -20 -20 -20 -20 -20 -20 -20 -20 -20 -20 -20 -20 -20 -20 -20
-20 -20 -14 -20 -19 6 -20 -20 -20 -20 -20 -20 -20 -20 -20 -20 -20 10 -19 -20 -20 -20 -20 -20 -20 -20 -20 -20 -20 -20 -20 -20
-20 -20 -18 -4 -20 -20 -20 -20 -20 -20 -20 -20 -20 -20 -20 -20 -4 13 -17 -20 -20 -20 -20 -20 -20 -20 -20 -20 -20 -20 -20 -20
-20 -20 -20 2 -20 -20 -20 -7 -9 -15 -20 -20 -20 -20 -20 -20 -20 -6 -20 -20 -20 -20 -20 -20 -20 -20 -20 -20 -20 -20 -20 -20
-20 -20 -20 -20 -20 -15 -6 1 4 5 -3 -3 -18 -20 -13 -20 -15 -5 -20 -20 -20 -20 -20 -20 -20 -20 -20 -20 -20 -20 -20 -20
-20 -20 -20 -20 -20 -6 -11 5 3 -0 -15 -7 -20 -20 -19 -20 -20 -20 -20 -20 -20 -20 -20 -20 -20 -20 -20 -20 -20 -20 -20 -20
-20 -20 -20 -20 -20 -20 -20 8 5 6 -10 6 -15 -20 -20 -20 -3 -20 -3 -20 -20 -20 -20 -20 -20 -20 -20 -20 -20 -20 -20 -20
-20 -20 -20 -20 -20 -20 -20 -3 -9 -1 2 -20 -20 -20 -20 -20 -20 -3 14 -20 -20 -20 -20 -20 -20 -20 -20 -20 -20 -20 -20 -20
-20 -20 -20 -20 -20 -20 -20 -20 2 13 -17 -20 -20 -20 -20 -20 -19 -20 18 -5 10 -20 -20 -20 -20 -20 -20 -20 -20 -20 -20 -20
-20 -20 -20 -20 -20 -20 -20 -20 -19 -3 -16 -20 -20 -20 -20 -20 -19 7 -6 -8 -16 -20 -20 -20 -20 -20 -20 -20 -20 -20 -20 -20
-20 -20 -20 -20 -20 -20 -20 -20 -20 -20 1 -20 -20 -20 -20 -20 -20 -19 -2 -20 15 -20 -20 -20 -20 -20 -20 -20 -20 -20 -20 -20
-20 -20 -20 -20 -20 -20 -18 -20 -19 -7 -8 4 -20 -19 -20 -20 -20 -20 -20 -20 -17 -20 -20 -20 -20 -20 -20 -20 -20 -20 -20 -20
-20 -20 -20 -20 -20 -4 -2 -20 -18 6 -8 -19 -8 -20 -20 -20 -20 -18 -7 -18 -20 -13 -20 -20 -20 -20 -20 -20 -20 -20 -20 -20
-20 -20 -20 -20 -20 -20 -13 -19 -20 -20 -20 -2 -8 -20 -20 -20 -20 -20 -17 -20 -19 -20 -20 -20 -20 -20 -20 -20 -20 -20 -20 -20
-20 -20 -20 -20 -20 -20 -9 4 -11 2 15 19 20 3 -20 -20 -20 -20 -20 -20 -20 31 29 -20 -20 -20 -20 -20 -20 -20 -20 -20
-20 -20 -20 -20 -20 -20 3 -15 23 14 -14 -18 -4 -20 -20 -20 -20 -20 -20 -20 -20 -20 0 24 -20 -20 -20 -20 -20 -20 -20 -20
-20 -20 -20 -20 -20 -20 -20 -14 -19 13 34 -18 2 -20 -20 -3 -20 -20 -20 -20 -20 -19 -20 -20 -20 -20 -20 -20 -20 -20 -20 -20
-20 -20 -2 -8 -3 18 -17 -20 -15 18 29 8 5 12 -9 0 -20 -20 -20 23 -5 5 21 -20 -20 -20 -20 -20 -20 -20 -20 -20
-20 -15 -10 -20 -14 12 29 25 35 25 33 34 14 32 22 -14 -7 -20 -15 -20 -2 -2 -2 3 -20 -13 -20 -20 -20 -20 -20 -20
-20 -19 -20 -20 -20 -20 -20 -20 -15 4 43 23 41 27 24 -10 33 8 -20 -20 -20 2 -14 15 -20 -20 -20 -20 -20 -20 -20 -20

GFSFLT2_prec_radar_231.txt.gz
Reflectivity
-20 -20 3 9 -20 -20 -20 -20 -20 -20 -20 -20 -20 -20 -20 -20 -20 -20 -20 -20 -20 -20 -20 -20 -20 -20 -20 -20 -20 -20 -20 -20
-20 -20 -20 2 -20 -20 10 -20 -20 -20 -20 -20 -20 -20 -20 -20 -20 -20 -20 -20 -20 -20 -20 -20 -20 -20 -20 -20 -20 -20 -20 -20
-20 -20 -20 -20 -9 -8 8 -19 -20 -20 -20 -20 -20 -20 -20 -20 -20 -20 -20 -20 -20 -20 -20 -20 -20 -20 -20 -20 -20 -20 -20 -20
14 -20 -20 -20 -9 8 -20 -4 -20 -20 -18 -20 -20 -20 -20 -20 -20 -20 -20 -20 -20 -20 -20 -20 -20 -20 -20 -20 -20 -20 -20 -20
-3 14 -20 -20 -20 8 -8 -20 -20 -17 -20 -20 -20 -20 -18 -20 -20 -20 -20 -20 -20 -20 -20 -20 -20 -20 -20 -20 -20 -20 -20 -20
-2 1 -19 -20 -20 -17 -14 -1 -18 -6 -18 -6 -20 -20 -20 -20 -20 -20 -20 -20 -20 -20 -20 -20 -20 -20 -20 -20 -20 -20 -20 -20
-20 -1 4 -12 -20 -20 -20 -20 -15 -10 -5 -8 -20 -20 -20 -20 -8 -17 -20 -20 -20 -20 -20 -20 -20 -20 -20 -20 -20 -20 -20 -20
-20 -20 -20 -20 -20 -20 -20 -20 -6 -2 -2 -12 -20 -20 -20 -20 -16 -20 -20 -20 -10 -20 -20 -20 -20 -20 -20 -20 -20 -20 -20 -20
-20 -20 -20 -20 -20 -20 -20 -20 -3 5 1 2 -19 -20 -20 -20 -19 10 -16 27 16 -20 -20 -20 -20 -20 -20 -20 -20 -20 -20 -20
-20 -20 -20 -20 -20 -20 -20 -20 -9 -14 -11 1 -20 -20 -14 -20 -7 -12 20 24 27 -10 -20 -20 -20 -20 -20 -20 -20 -20 -20 -20
-20 -20 -20 -20 -20 -20 -20 -13 -20 -20 -15 -2 -12 -20 -6 -20 -20 23 28 7 1 17 -20 -20 -20 -20 -20 -20 -20 -20 -20 -20
-20 -20 -20 -20 -20 -20 -20 19 -17 -11 6 -20 7 -20 -20 -20 -20 -14 29 -10 -20 -4 -20 -20 -20 -20 -20 -20 -20 -20 -20 -20
-20 -20 -20 -20 -20 -20 -9 -12 5 -20 -19 -20 7 2 -20 -20 -20 -20 -12 -16 27 5 16 -20 -20 -20 -20 -20 -20 -20 -20 -20
-20 -20 -20 -20 -20 -20 -13 -10 -13 -20 -19 14 -2 14 -18 -20 -20 -20 -20 22 -13 -20 -12 -20 -20 -20 -20 -20 -20 -20 -20 -20
-20 -20 -20 -20 -20 -20 -16 11 -15 14 -7 -14 -8 8 -14 8 -11 -20 -20 4 -15 11 -8 -17 -5 -20 -20 -20 -20 -20 -20 -20
-20 -20 -20 -20 -20 -10 -14 -4 7 10 -13 -20 -6 7 -20 -18 -5 -20 -20 -20 -20 -20 -15 19 14 -20 -20 -20 -20 -20 -20 -20
-20 -20 -20 -20 -20 -20 -20 -14 24 -11 -6 -15 -19 3 3 -19 10 -20 -20 -20 -20 -17 -20 -8 -0 -4 -20 -20 -20 -20 -20 -20
-20 -20 -20 -15 -3 -10 -8 -15 -12 -20 3 1 -4 23 8 22 11 -4 -13 -18 -20 -9 -20 -20 -20 22 21 -20 -20 -20 -20 -20
-20 -18 -20 -1 -2 -8 -11 -18 -6 -5 -15 -9 -1 -14 0 10 4 -15 -5 -14 -20 21 -20 -20 -20 -20 7 -20 -20 -20 -20 -20
-20 -20 -3 -19 4 16 -14 -15 -1 4 -3 15 20 12 9 6 27 -12 -19 -19 24 -18 -19 25 -20 10 -13 -20 -20 -20 -20 -20

GFSFLT2_prec_radar_234.txt.gz
Reflectivity
1 -20 12 16 3 -12 7 7 -20 -20 -20 -20 -19 -20 -20 -20 -20 -20 -20 -20 -20 -20 -20 -20 -20 -20 -20 -20 -20 -20 -20 -20
-20 -9 0 15 -20 -20 13 10 -20 -20 -20 -20 -20 -20 -20 -20 -20 -20 -20 -20 -20 -20 -20 -20 -20 -20 -20 -20 -20 -20 -20 -20
-5 17 10 13 -20 -20 3 12 -10 -20 -20 -20 -20 -20 -20 -20 -20 -20 -20 -20 -20 -20 -20 -20 -20 -20 -20 -20 -20 -20 -20 -20
19 13 16 -12 -20 -20 -20 -18 -20 -20 -20 -20 -20 -20 -20 -20 -20 -20 -20 -20 -20 -20 -20 -20 -20 -20 -20 -20 -20 -20 -20 -20
-11 7 8 6 -20 -14 -20 -20 -20 -12 -20 -20 -20 -20 -20 -20 -20 -20 -20 -14 -20 -20 -20 -20 -20 -20 -20 -20 -20 -20 -20 -20
-20 8 10 7 -19 -20 -20 -20 -20 -20 -20 -20 -20 -20 -20 -20 -20 -20 -20 -20 -20 -20 -20 -20 -20 -20 -20 -20 -20 -20 -20 -20
-20 -13 3 -2 11 -18 -20 -20 -20 -20 -20 -20 -20 -20 -20 -20 -20 -20 -20 -20 -20 -20 -20 -20 -20 -20 -20 -20 -20 -20 -20 -20
-20 2 -20 -18 -11 8 -20 -20 -20 -20 -20 -20 -20 -20 -20 -20 -20 -17 -12 -20 -20 -20 -20 -20 -20 -20 -20 -20 -20 -20 -20 -20
-20 -18 5 -5 -20 -20 -20 -20 -20 -20 -20 -20 -11 -20 -20 4 -20 -20 25 -3 5 4 -20 -20 -20 -20 -20 -20 -20 -20 -20 -20
-20 -13 -6 -20 -20 -20 -20 -20 -20 -20 -20 -20 -20 -12 -20 -20 32 -15 -20 27 22 -20 -2 -20 -20 -20 -20 -20 -20 -20 -20 -20
-20 -20 9 -20 -20 -20 -20 -20 -10 -5 -14 -8 -20 -20 -20 -20 -19 -19 23 10 15 -2 -10 -17 -20 -20 -20 -20 -20 -20 -20 -20
-20 -20 -19 -20 -20 -20 11 -20 -20 -20 2 0 -5 -20 -20 24 -19 7 22 24 20 -19 -12 -4 -17 -20 -20 -20 -20 -20 -20 -20
-20 -20 -20 -20 -5 -5 -19 -20 13 -12 2 4 5 32 -13 -20 -20 -20 35 27 17 12 -14 0 6 -20 -20 -20 -20 -20 -20 -20
-20 -20 -20 -20 -20 -18 -12 -20 -18 -12 16 -2 -20 -4 14 2 -19 7 0 9 12 -14 -7 -20 -20 -20 -20 -20 -20 -20 -20 -20
-20 -20 -20 -20 -20 -20 -8 -5 -4 -8 0 -2 -0 -20 -1 6 -10 -20 -14 21 14 27 27 -20 -15 -19 -20 -20 -20 -20 -20 -20
-20 -20 -20 -20 -20 -20 -19 -20 -8 -6 -8 -7 -1 24 3 -20 12 -11 -19 -11 8 22 20 -14 -20 -20 -20 -20 -20 -20 -20 -20
-20 -20 -20 -20 -20 -20 -20 -20 -20 -20 -20 24 -7 -5 6 -6 13 -3 18 -6 -20 27 -14 -20 -17 -20 -20 -20 -20 -20 -20 -20
-20 -20 -20 -20 -1 -16 -19 -20 -20 -8 -9 3 24 -12 18 5 -4 20 -3 17 -3 -20 24 -20 -0 16 22 -20 -20 -20 -20 -20
-20 -20 -20 -20 -12 2 -2 -19 3 -7 1 -20 9 -11 20 -5 -20 1 -1 -9 -0 -20 -20 -20 -20 -20 -6 8 -5 -20 -20 -20
-20 -20 -1 3 7 4 -4 -4 -20 -20 -0 -19 -20 -5 19 23 27 -3 -20 -20 -12 3 -19 29 -9 -14 -14 -15 -20 -19 -20 -19

GFSFLT2_prec_radar_240.txt.gz
Reflectivity
-20 -17 -9 -17 -20 -20 -20 -20 -20 -20 -20 -20 -20 -20 -20 -20 -20 -20 -20 -20 -20 -20 -20 -20 -20 -20 -20 -20 -20 -20 -20 -20
-20 -20 -11 0 7 -20 -20 -20 -20 -20 -20 -20 -20 -20 -20 -20 -20 -20 -20 -20 -20 -20 -20 -20 -20 -20 -20 -20 -20 -20 -20 -20
-20 -13 -15 5 11 9 -20 -20 -12 -20 -20 -20 -20 -7 -4 -4 -20 -20 -20 -20 -20 -20 -20 -20 -20 -20 -20 -20 -20 -20 -20 -20
-20 -7 -10 -5 10 11 7 6 5 -20 -20 -4 -20 -20 -20 -20 -20 -20 -20 -20 -20 -20 -20 -20 -20 -20 -20 -20 -20 -20 -20 -20
-20 -20 -15 4 11 11 9 -17 9 -2 -6 -3 -20 -20 -20 -20 9 8 4 -20 -20 -20 -20 -20 -20 -20 -20 -20 -20 -20 -20 -20
-20 -20 -20 4 9 10 -20 9 4 -14 25 -4 -20 -20 -20 -20 9 -20 -20 -20 -20 -18 -20 -20 -20 -20 -20 -20 -20 -20 -20 -20
-20 -20 -11 1 9 -13 -20 -20 -10 -3 8 -6 -20 -20 -20 -20 -20 -20 -1 -20 -18 -20 -20 -20 -20 -20 -20 -20 -20 -20 -20 -20
-20 -20 -18 -20 4 -13 -18 -20 -20 -20 -3 -20 -20 -20 -20 -20 -20 -20 10 -20 -20 -20 -20 -20 -20 -20 -20 -20 -20 -20 -20 -20
-20 -20 -20 -8 -4 -6 -12 -20 -20 -20 -20 -20 -20 -20 -20 -20 -4 -20 -0 -16 11 -20 -20 1 -20 -20 -20 -20 -20 -20 -20 -20
-20 -20 -20 -20 -5 5 4 -20 -19 -20 -20 -20 -20 -20 -20 -20 -20 -20 -20 -5 -13 -20 -20 -20 -20 -20 -20 -20 -20 -20 -20 -20
0 -20 -20 -4 -19 -3 1 -18 -20 -20 -20 -20 -20 -20 -20 -20 -20 -20 -20 -20 -3 -20 -20 -20 -9 -20 -20 -20 -20 -20 -20 -20
0 -20 -20 -9 -20 4 8 7 1 -20 -20 -20 -20 -20 -20 -20 -20 -20 -1 -20 -20 -20 -20 -17 14 -20 -20 -20 -20 -20 -20 -20
-20 1 -20 9 9 6 5 -18 6 10 -6 -20 -20 -20 -20 -20 -20 5 6 -15 -20 -6 8 3 22 -6 -20 -20 -20 -20 -20 -20
-20 -20 -20 11 10 4 -8 -11 -10 11 23 -5 -20 8 0 1 -12 5 10 6 13 -6 8 12 -17 -9 -20 -20 -20 -20 -20 -20
-20 -20 -20 -2 5 4 11 4 6 6 22 9 2 5 7 13 11 3 5 24 26 20 26 24 6 -13 -13 -20 -20 -9 -20 -20
-20 -20 -20 -20 -20 -18 7 4 1 -10 -10 -14 -9 7 11 12 8 -10 -5 22 23 20 28 29 25 1 15 -20 -8 -1 -20 -20
-20 -20 -20 -20 -18 -20 -20 -5 -20 -20 -14 -0 6 5 -3 -2 30 23 17 23 23 25 33 31 24 6 -20 -18 -20 -20 -20 -20
-20 -20 -20 -20 -20 28 -9 -2 -20 -20 -14 5 9 3 -20 -18 -15 12 -2 24 26 21 18 26 25 13 -1 -20 -20 -20 -19 -20
-20 -20 -20 -20 -20 11 -7 5 -12 21 -20 -5 6 9 4 5 14 -19 -6 -18 24 23 12 14 18 8 -10 4 -19 -20 -18 7
-20 -20 -20 -20 -20 -20 -9 2 -10 -14 25 -1 10 11 7 -16 26 27 -9 -17 -5 30 28 25 -2 23 6 15 14 25 -20 -20

GFSFLT2_prec_radar_246.txt.gz
Reflectivity
-1 7 -20 -20 -20 -20 -20 -20 -20 -20 -20 -20 -20 -20 -20 -20 -20 -20 -20 -20 -20 -20 -20 -20 -20 -20 -20 -19 -19 -19 -20 -20
-20 -20 -3 -1 -20 -20 -20 -20 -20 -20 -20 -20 -20 -20 -20 -20 -20 -20 -20 -20 -20 -20 -20 -20 -20 -20 -20 -20 -13 15 -20 -20
-20 -20 -20 -5 -20 -16 -20 -20 -20 -20 -20 -20 -20 -20 -20 -20 -20 -20 -20 -20 -20 -20 -20 -20 -20 -20 -20 -20 -19 -12 -20 -12
-20 -20 -20 -19 -20 -14 -12 -13 -12 -11 -20 -14 -20 -20 -20 -20 -20 -20 -20 -20 -20 -20 -20 -20 -20 -20 -20 -20 -20 -20 -20 -20
-20 -20 -20 -20 -20 -10 -18 3 1 6 -14 -20 -20 -20 -20 -20 -15 -20 -20 -20 -20 -20 -20 -20 -20 -20 -20 -20 -20 -20 -20 -20
-20 -20 -20 -20 -20 -15 -20 -5 5 -8 -14 -19 -20 -20 -20 -20 -20 -20 -20 -20 -20 -20 -20 -20 -20 -20 -20 -20 -20 -20 -20 -20
-20 -20 -20 -20 -20 -20 -20 -20 -20 -17 -20 -19 -20 -20 -20 -20 -20 -20 -20 -20 -20 -20 -20 -20 -20 -20 -20 -20 -20 -20 -20 -20
-20 -20 -20 -20 -20 -20 -20 -20 -20 -0 -20 -20 -20 -20 -20 -20 -11 -20 -9 -20 -20 -20 -20 -20 -20 -20 -20 -20 -20 -20 -20 -20
-20 -20 -20 -20 -20 -20 -8 -20 -20 2 -9 -4 -20 -20 -20 -20 4 -20 -13 -20 -20 -20 -20 -20 -20 -20 -20 -20 -20 -20 -20 -20
-20 -20 -20 -20 -20 -20 -13 4 -20 -20 6 6 -20 -18 -20 -20 6 -18 -3 -20 -20 -20 -20 -20 -20 -20 -20 -20 -20 -20 -20 -20
-20 -20 -19 -20 -20 -20 -20 -11 -1 -20 7 -19 -20 -14 -20 -20 -12 -19 -19 -7 -20 -20 -20 -20 -20 -20 -20 -20 -20 -20 -20 -20
-19 -7 25 10 -20 -20 -20 -20 10 -14 2 -20 -20 -20 -20 -20 -20 -15 -16 -20 -20 -20 -20 -20 -20 -20 -20 -20 -20 -20 -20 -20
-20 0 14 27 -20 -20 -20 -20 -20 23 -10 -20 -20 -20 -20 -20 -20 -20 -20 -13 -20 -20 -20 -20 -20 -20 -20 -20 -20 -20 -20 -20
-18 14 23 10 21 -20 -20 -16 -20 -20 -20 -7 -20 -20 -16 -20 -20 -20 -20 -3 -13 -19 -20 -20 -20 -20 -20 -20 -20 -20 -20 -20
-20 -0 28 18 15 -20 13 6 18 20 12 2 11 -20 -20 -2 -20 -20 -19 -14 2 -20 -20 -2 -20 -20 -20 -20 -20 -20 -20 -14
-20 26 6 22 28 9 -20 7 12 21 -1 5 30 -2 -20 -15 -20 -20 -13 2 13 -20 -20 -20 -20 -20 -20 -20 -20 -20 -18 -19
-20 11 -7 17 16 42 -19 5 4 31 34 -11 17 16 -9 -20 -20 -18 -9 -15 3 3 -20 -20 -20 -20 -20 -20 -20 -20 -20 -15
-20 -9 -5 33 23 26 10 -20 -19 29 12 39 27 34 12 -14 -20 -20 -20 3 -20 -20 -20 -18 -20 -20 -20 -20 -20 -20 -20 2
-18 -9 -5 14 -6 16 35 11 -20 -20 -11 -19 15 38 31 5 -6 -9 -20 -13 -17 -20 23 19 20 10 -20 -20 -20 -4 -4 -20
9 -10 -7 18 18 -10 21 37 -20 -20 -15 30 -20 -0 29 -20 -20 -20 6 -20 -20 4 -15 -13 16 -15 -20 -20 -19 4 24 13

GFSFLT2_prec_radar_249.txt.gz
Reflectivity
-20 -16 -12 3 -5 -20 -20 -20 -20 -20 -20 -20 -20 -20 -20 -20 -20 -20 -20 -20 -20 -20 -20 -20 -20 -20 -20 3 -13 -19 -20 3
-20 -19 -10 -5 -4 4 7 -20 -20 -20 -20 -20 -20 -20 -20 -20 -20 -20 -20 -20 -20 -20 -20 -20 -20 -20 -18 -20 -20 -20 -20 16
-20 -20 -11 -18 -20 -20 -3 -20 -20 -20 -20 -20 -20 -20 -20 -20 -20 -20 -20 -20 -20 -20 -20 -20 -20 -20 -20 -20 -20 -20 -20 3
-20 -20 -20 -20 -20 -20 -19 -14 -20 -20 -20 -20 -20 -20 -20 -20 -20 -20 -20 -20 -20 -20 -20 -20 -20 -20 -20 -20 -20 -20 2 -20
-20 -20 -20 -20 -20 -12 -11 -2 -9 -6 -12 -20 -20 -20 -20 -20 -19 -20 -20 -20 -20 -20 -20 -20 -20 -20 -20 -20 -20 -20 -15 -20
-20 -20 -20 -20 -20 -20 -20 -20 -19 1 -9 -2 -20 -20 -20 -20 -20 -20 -20 -20 -20 -20 -20 -20 -20 -20 -20 -20 -20 -20 -20 -20
-20 -11 18 -20 -20 -20 -20 -20 -11 -20 -10 -2 -20 -20 -20 -20 -20 -20 -20 -20 -20 -20 -20 -20 -20 -20 -20 -20 -20 -20 -20 -20
-20 -20 -20 10 -7 -20 -20 -20 -20 -17 -8 -3 -20 -20 -20 -20 -20 -20 -20 -20 -20 -20 -20 -20 -20 -20 -20 -20 -20 -20 -20 -20
-20 -20 -20 -20 -18 15 -20 -20 -20 -17 -20 -1 -20 -20 -20 -20 -20 -20 -20 -20 -20 -20 -20 -20 -20 -20 -20 -20 -20 -20 -20 -20
-20 -20 -20 -20 -20 14 -3 -14 -20 -20 1 -7 -20 -20 -20 -20 -20 -20 -20 -20 -20 -20 -20 -20 -20 -20 -20 -20 -20 -20 -20 -20
-20 -19 -20 -20 -20 -10 3 -13 -7 -20 1 -19 -20 -20 -20 -20 -20 -20 -20 -20 -20 -20 -20 -20 -20 -20 -20 -20 -20 -20 -20 -20
-20 -18 -20 23 20 -10 5 24 36 17 -18 -20 -20 -20 -20 -20 -20 -20 -20 -20 -20 -20 -20 -20 -20 -20 -20 -20 -20 -20 -20 -20
-7 -20 -20 -20 37 36 32 -11 18 18 -8 -17 -3 9 -0 -20 -20 -20 -20 -20 -20 -15 -13 -20 -20 -20 -20 -20 -20 -20 -20 -20
8 6 -18 14 -20 33 -18 -0 36 19 10 -15 -20 -20 -20 -20 -20 -20 -20 -20 -12 -20 -20 -20 -20 -20 -20 -20 -20 -20 -20 -20
7 11 5 5 16 -6 37 -15 34 37 37 3 -9 4 -10 -9 -15 -20 -20 -20 -16 -20 -20 -20 -20 -20 -20 -20 -20 -20 -20 -20
-20 6 14 20 26 -20 -4 42 10 36 34 -6 0 -11 -8 -20 -20 -20 -20 -20 -20 -20 -20 -20 -20 -20 -20 -20 -20 -20 -20 -20
-20 -20 -20 22 23 -20 -20 17 46 25 22 32 -0 12 30 -11 -20 -20 -20 31 -18 -20 -20 -20 -20 -20 -20 -20 -20 -20 -20 -20
-20 -20 -20 -14 30 -15 -11 23 38 32 33 35 5 37 39 0 3 -16 -10 -20 -20 -20 -20 -20 -20 -20 -20 -20 -20 -20 -20 -20
-3 -9 -10 6 -8 24 -15 17 -2 27 28 21 42 33 47 29 20 15 28 30 22 -20 -20 -20 -20 -20 -20 -20 -20 -20 -20 -20
12 15 6 9 13 7 -4 11 5 -15 -19 -11 24 27 38 43 25 21 34 30 5 -20 -20 -20 -20 -20 -20 -20 -20 -20 -20 -20